Preview of NWS' New Version of Forecast
This preview is not operational and should not be used for support decisions.

Regional Weather Roundup (RWR)

Issued by National Weather Service (NWS)

                            
000
ASUS43 KMKX 152121
RWRWI 

WISCONSIN REGIONAL WEATHER ROUNDUP
NATIONAL WEATHER SERVICE MILWAUKEE/SULLIVAN WI
400 PM CDT MON OCT 15 2018

NOTE: "FAIR" INDICATES FEW OR NO CLOUDS BELOW 12,000 FEET WITH NO
SIGNIFICANT WEATHER AND/OR OBSTRUCTIONS TO VISIBILITY.

WIZ001-002-006>008-014>016-023>028-152200-
NORTHWEST WISCONSIN
  
CITY           SKY/WX    TMP DP  RH WIND       PRES   REMARKS
SUPERIOR ARPT  NOT AVBL                                               
ASHLAND        FAIR      43  24  47 SW16      30.03F                  
HAYWARD        FAIR      41  25  53 SW13G22   30.06F                  
SIREN          NOT AVBL                                               
CUMBERLAND     NOT AVBL                                               
RICE LAKE      NOT AVBL                                               
CHETEK         NOT AVBL                                               
LADYSMITH      NOT AVBL                                               
EAU CLAIRE     FAIR      43  23  45 W14       30.12F                  
MENOMONIE      NOT AVBL                                               
NEW RICHMOND   NOT AVBL                                               
OSCEOLA        NOT AVBL                                               
$$
 
WIZ003>005-009-010-017-018-152200-
NORTH CENTRAL WISCONSIN
  
CITY           SKY/WX    TMP DP  RH WIND       PRES   REMARKS
MANITOWISH WTR NOT AVBL                                               
ARBOR VITAE    NOT AVBL                                               
WOODRUFF       NOT AVBL                                               
RHINELANDER    PTSUNNY   37  20  50 W16       30.05R WCI  28          
EAGLE RIVER    NOT AVBL                                               
LAND O LAKES   NOT AVBL                                               
PHILLIPS       NOT AVBL                                               
TOMAHAWK       NOT AVBL                                               
MEDFORD        NOT AVBL                                               
MERRILL        NOT AVBL                                               
$$
 
WIZ029-030-035-036-043>047-152200-
CENTRAL WISCONSIN
  
CITY           SKY/WX    TMP DP  RH WIND       PRES   REMARKS
WAUSAU         NOT AVBL                                               
MOSINEE        CLOUDY    36  27  69 W9        30.13R WCI  29          
MARSHFIELD     NOT AVBL                                               
STEVENS POINT  NOT AVBL                                               
WAUPACA        NOT AVBL                                               
WAUTOMA        CLOUDY    38  24  57 W14G23    30.17R WCI  30          
WISC RAPIDS    CLOUDY    38  24  57 W10       30.15S WCI  31          
CAMP DOUGLAS   MOSUNNY   41  28  60 W13G20    30.16S                  
$$
 
WIZ011>013-019>022-031-037>040-048>050-152200-
NORTHEAST WISCONSIN
  
CITY           SKY/WX    TMP DP  RH WIND       PRES   REMARKS
ANTIGO         NOT AVBL                                               
SHAWANO        NOT AVBL                                               
OCONTO         NOT AVBL                                               
STURGEON BAY   FAIR      39  24  55 W15G25    30.08S WCI  31          
GREEN BAY      CLOUDY    39  25  57 W16G26    30.13R WCI  30          
MANITOWOC      CLOUDY    39  23  52 W16G25    30.14R WCI  30          
APPLETON       PTSUNNY   37  19  48 W17       30.12S WCI  28          
CLINTONVILLE   NOT AVBL                                               
OSHKOSH        PTSUNNY   38  24  57 NW16G24   30.15R WCI  29          
$$
 
WIZ032>034-041-042-053>061-152200-
SOUTHWEST WISCONSIN
  
CITY           SKY/WX    TMP DP  RH WIND       PRES   REMARKS
LA CROSSE      FAIR      46  25  43 W14       30.19S                  
SPARTA         NOT AVBL                                               
VIROQUA        NOT AVBL                                               
BOSCOBEL       FAIR      46  26  45 W12G17    30.22S                  
PRAIRIE DU CHI NOT AVBL                                               
PLATTEVILLE    NOT AVBL                                               
$$

WIZ056-057-062-063-064-067-068-152200-
SOUTH CENTRAL WISCONSIN
  
CITY           SKY/WX    TMP DP  RH WIND       PRES   REMARKS
REEDSBURG      NOT AVBL                                               
BARABOO/DELLS  NOT AVBL                                               
LONE ROCK      FAIR      44  26  49 W14G24    30.20S                  
MINERAL POINT  NOT AVBL                                               
MADISON        FAIR      42  23  46 W14G21    30.18R                  
MIDDLETON      NOT AVBL                                               
WATERTOWN      NOT AVBL                                               
MONROE         NOT AVBL                                               
JANESVILLE     MOSUNNY   46  25  42 W16       30.18S                  
$$
 
WIZ051-052-058>065-066-070>072-152200-
SOUTHEAST WISCONSIN
  
CITY           SKY/WX    TMP DP  RH WIND       PRES   REMARKS
MILWAUKEE      FAIR      46  23  40 W14G26    30.16S                  
WAUKESHA       MOSUNNY   39  23  52 W21       30.17R WCI  29          
MILWAUKEE/TIMM MOSUNNY   45  19  36 NW16      30.16R                  
RACINE         FAIR      46  23  40 W7G22     30.17S                  
BURLINGTON     NOT AVBL                                               
KENOSHA        FAIR      46  26  45 W15G26    30.17R                  
FOND DU LAC    PTSUNNY   42  24  49 W21G28    30.15R                  
SHEBOYGAN      FAIR      41  23  48 NW13G28   30.14R                  
WEST BEND      NOT AVBL                                               
JUNEAU         NOT AVBL                                               
$$

LSZ147-162-152200-
LAKE SUPERIOR
  
STATION/POSITION TIME  TEMP    WIND        PRES    WAVE
                       AIR SEA DIR/SP/G            HT/PER
                 (UTC) (F)     (DEG/KT/KT) (MB)    (FT/S)
W MID LAKE BUOY  2050   39 44  260/ 21/ 27 1015.3F   4/ 5
DEVILS ISLAND    2100   40     260/ 25/ 29 1016.1F
SAXON HARBOR     2030   42     230/  6/ 13 1016.6F
$$
 
LMZ867-665-643>646-152200-
LAKE MICHIGAN
  
STATION/POSITION TIME  TEMP    WIND        PRES    WAVE
                       AIR SEA DIR/SP/G            HT/PER
                 (UTC) (F)     (DEG/KT/KT) (MB)    (FT/S)
CHAMBERS ISLAND  2040   40     240/  8/ 22 1017.3R
S GREEN BAY BUOY 2100   49 55  270/ 19/ 27 1018.6
N MID LAKE BUOY  2100   41     270/ 23/ 31 1016.5
NORTHPORT PIER   2040   40     290/  6/ 12 1017.3R
KEWAUNEE LAKESHO 2100   39     280/ 11/ 16 1018.7
SHEBOYGAN LAKESH 2100   40     270/ 15/ 23 1021.1R
PORT WASHINGTON  2040   45     300/ 15/ 22 1022.0R
ATWATER BUOY     2037   45 55  270/ 16/ 23 1021.1R   2/ 6
MILWAUKEE LAKESH 2100   44     290/ 14/ 20   N/A
S MID LAKE BUOY  2050   45 60  280/ 16/ 21 1021.5R   4/ 6
KENOSHA   LAKESH 2100   45     280/ 12/ 21 1021.3
$$

TC  - TEMPERATURE IN CELSIUS
VSB - VISIBILITY IN STATUTE MILES
WCI - WIND CHILL INDEX
HX  - HEAT INDEX